Volver al catálogo

THOR ABLESTAR DEB

ActivoLEO
NORAD 128·DEBRIS·🇺🇸 United States

Lanzado Jun 29, 1961 desde Cape Canaveral Space Force Station

Loading…

Próximos Pases (próximas 24 horas)

TLE

ActualizadoSource: Space-Track

Época: Sep 7, 2026, 13:38 UTC

1 00128U 61015N   26250.56814023  .00000013  00000-0  58649-4 0  9998
2 00128  66.6770 333.9495 0100823 262.4977  96.4644 14.02051772326623

Sigue THOR ABLESTAR DEB en tiempo real con AllMySat

Download on the App Store